DateTimeUTC,F1_A11,F1_S11,BsB_S11,BsG_S11,BsR_S11,BbsB_S11,BbsG_S11,BbsR_S11,BaB_A11,BaG_A11,BaR_A11,Tu_S11,T_S11,Uu_S11,U_S11,P_S11,T1_A11
2021-02-06T14:00:00Z,00000200,21000000,,,,,,,0000.32,0000.08,0000.35,15.2,22.8,,00.0,0652.5,30.8
2021-02-06T14:01:00Z,00000200,21000000,,,,,,,0000.15,0000.78,0000.62,15.2,22.8,,00.0,0652.5,30.8
2021-02-06T14:02:00Z,00000200,21000000,,,,,,,-000.28,-000.24,-000.14,15.2,22.8,,00.0,0652.5,30.8
2021-02-06T14:03:00Z,00000200,61000000,,,,,,,0000.61,0000.74,0000.06,15.2,22.8,,00.0,0652.5,30.9
2021-02-06T14:04:00Z,00000200,41000000,-000.38,-000.11,0000.04,-000.57,0000.30,0000.04,0000.20,-000.51,0000.07,15.7,22.8,,00.0,0653.5,30.9
2021-02-06T14:05:00Z,00000200,01000000,-000.07,-000.26,-000.24,-000.68,0000.09,-000.32,-000.18,0000.43,0000.09,15.9,22.8,,00.0,0653.5,30.9
2021-02-06T14:06:00Z,00000200,01000000,0000.04,-000.25,0000.10,0000.54,-000.03,-000.09,0000.42,0000.23,0000.22,16.0,22.8,,00.0,0653.6,30.9
2021-02-06T14:07:00Z,00000200,01000000,0000.98,0000.28,0000.17,-000.45,-000.02,-000.09,-000.20,0000.01,-000.16,16.1,22.8,,00.0,0653.6,30.9
2021-02-06T14:08:00Z,00000200,01000000,0000.03,0000.08,0000.03,0000.26,-000.14,-000.00,0000.34,0000.20,0000.54,16.2,22.9,,00.0,0653.6,30.9
2021-02-06T14:09:00Z,00000200,01000000,-000.38,0000.13,-000.07,-000.10,0000.02,-000.04,-000.05,0000.32,0000.05,16.3,23.0,,00.0,0653.6,31.0
2021-02-06T14:10:00Z,00000200,01000000,0000.10,-000.05,-000.15,0000.24,0000.12,-000.20,0000.57,-000.02,0000.20,16.3,23.0,,00.0,0653.7,31.0
2021-02-06T14:11:00Z,00000200,01000000,0000.26,0000.01,-000.28,0000.05,-000.07,-000.01,0000.18,0000.33,0000.25,16.4,23.1,,00.0,0653.7,31.0
2021-02-06T14:12:00Z,00000200,01000000,0000.14,0000.42,-000.24,0000.34,-000.18,-000.33,0000.23,0000.50,0000.03,16.6,23.1,,00.0,0653.7,31.0
2021-02-06T14:13:00Z,00000200,01000000,-000.02,0000.15,-000.40,0000.18,0000.03,-000.05,0000.24,0000.46,0000.20,16.6,23.1,,00.0,0653.5,31.0
2021-02-06T14:14:00Z,00000200,01000000,-000.15,0000.18,-000.21,-000.06,0000.10,-000.23,-000.20,-000.31,-000.21,16.6,23.1,,00.0,0653.6,31.0
2021-02-06T14:15:00Z,00000200,01000000,-000.01,0000.15,0000.13,0000.18,0000.08,-000.18,0000.20,-000.12,-000.13,16.7,23.1,,00.0,0653.7,31.0
2021-02-06T14:16:00Z,00000200,01000000,0000.58,-000.07,-000.04,-000.19,-000.08,-000.00,0000.00,-000.12,0000.09,16.7,23.2,,00.0,0653.7,30.9
2021-02-06T14:17:00Z,00000200,01000000,0000.64,0000.30,-000.11,-000.03,-000.16,-000.07,-000.32,-000.10,0000.13,16.7,23.2,,00.0,0653.7,31.0
2021-02-06T14:18:00Z,00000200,01000000,-000.01,0000.01,0000.01,-000.24,0000.25,0000.11,0000.36,-000.09,-000.12,16.8,23.2,,00.0,0653.8,31.0
2021-02-06T14:19:00Z,00000200,01000000,0000.04,-000.20,-000.30,0000.02,-000.04,0000.14,0000.14,0000.46,0000.13,16.8,23.2,,00.0,0653.7,31.0
2021-02-06T14:20:00Z,00000200,01000000,0000.70,0000.04,-000.07,0000.26,0000.04,-000.26,0000.45,0000.39,0000.53,16.8,23.3,,00.0,0653.7,31.0
2021-02-06T14:21:00Z,00000200,01000000,-000.14,0000.11,-000.03,-000.17,-000.14,-000.27,-000.06,0000.26,0000.09,16.9,23.3,,00.0,0653.7,31.0
2021-02-06T14:22:00Z,00000200,01000000,-000.35,0000.03,0000.21,0000.02,0000.04,-000.21,-000.04,-000.28,0000.31,16.9,23.3,,00.0,0653.7,31.0
2021-02-06T14:23:00Z,00000200,01000000,0000.51,0000.28,0000.11,0000.30,-000.02,-000.11,-000.33,-000.08,-000.71,16.8,23.3,,00.0,0653.8,31.0
2021-02-06T14:24:00Z,00000200,01000000,-000.70,0000.10,-000.04,0000.00,-000.00,-000.31,0000.28,0000.16,0000.32,16.8,23.3,,00.0,0653.8,30.9
2021-02-06T14:25:00Z,00000200,01000000,0000.01,-000.29,-000.28,-000.22,0000.16,-000.11,-000.45,-000.16,-000.23,16.7,23.3,,00.0,0653.9,30.9
2021-02-06T14:26:00Z,00000200,01000000,0000.37,0000.19,-000.13,0000.13,-000.10,-000.30,-000.01,0000.11,-000.24,16.6,23.3,,00.0,0653.9,30.9
2021-02-06T14:27:00Z,00000200,01000000,-000.59,-000.09,-000.01,0000.13,-000.12,-000.17,0000.37,-000.46,0000.00,16.6,23.2,,00.0,0653.9,30.9
2021-02-06T14:28:00Z,00000200,01000000,0000.17,0000.44,-000.15,-000.51,0000.07,0000.05,-000.02,0000.34,0000.04,16.5,23.2,,00.0,0653.9,30.9
2021-02-06T14:29:00Z,00000200,01000000,-000.42,-000.13,-000.14,-000.38,-000.04,0000.01,-000.23,-000.51,0000.15,16.4,23.1,,00.0,0653.9,30.9
2021-02-06T14:30:00Z,00000200,01000000,-000.18,-000.17,-000.02,-000.00,-000.20,0000.10,0000.14,-000.14,0000.13,16.3,23.1,,00.0,0653.9,30.9
2021-02-06T14:31:00Z,00000200,01000000,0000.26,0000.25,-000.02,-000.24,-000.05,-000.37,-000.34,0000.01,-000.45,16.4,23.1,,00.0,0653.9,30.9
2021-02-06T14:32:00Z,00000200,01000000,0000.22,-000.03,-000.11,0000.73,0000.02,0000.01,0000.45,0000.67,0000.22,16.4,23.1,,00.0,0653.9,30.9
2021-02-06T14:33:00Z,00000200,01000000,0000.06,-000.16,-000.11,-000.20,-000.16,0000.06,-000.58,-000.82,0000.00,16.3,23.0,,00.0,0653.9,30.9
2021-02-06T14:34:00Z,00000200,01000000,0000.27,-000.03,0000.04,-000.08,0000.07,0000.03,0000.44,0000.34,0000.15,16.3,23.1,,00.0,0654.0,30.9
2021-02-06T14:35:00Z,00000200,01000000,0000.37,-000.08,0000.04,-000.57,-000.04,-000.31,-000.11,0000.50,0000.25,16.3,23.1,,00.0,0654.0,30.9
2021-02-06T14:36:00Z,00000200,01000000,0000.26,0000.05,0000.09,-000.42,0000.04,0000.05,0000.46,-000.31,-000.09,16.2,23.1,,00.0,0654.0,30.9
2021-02-06T14:37:00Z,00000200,01000000,-000.37,0000.24,-000.29,-000.31,-000.05,-000.25,-000.26,0000.04,-000.50,16.2,23.0,,00.0,0654.0,30.9
2021-02-06T14:38:00Z,00000200,01000000,-000.77,-000.15,-000.04,-000.38,0000.14,-000.10,0000.16,-000.15,0000.13,16.1,23.0,,00.0,0654.0,30.8
2021-02-06T14:39:00Z,00000200,01000000,0000.14,-000.02,0000.17,-000.42,0000.06,-000.15,0000.36,0000.39,0000.78,16.0,22.9,,00.0,0654.0,30.8
2021-02-06T14:40:00Z,00000200,01000000,0000.17,0000.06,0000.08,0000.25,-000.08,-000.06,0000.01,-000.04,-000.40,15.9,22.9,,00.0,0654.0,30.8
2021-02-06T14:41:00Z,00000200,01000000,-000.29,0000.06,-000.01,0000.03,-000.12,-000.11,0000.25,0000.68,0000.28,15.8,22.8,,00.0,0654.1,30.8
2021-02-06T14:42:00Z,00000200,01000000,-000.13,-000.08,-000.23,0000.18,-000.16,0000.09,0000.15,-000.48,-000.03,15.7,22.7,,00.0,0654.1,30.7
2021-02-06T14:43:00Z,00000200,01000000,-000.09,-000.11,0000.02,0000.08,-000.04,0000.18,0000.50,0000.27,0000.19,15.7,22.7,,00.0,0654.0,30.7
2021-02-06T14:44:00Z,00000200,01000000,-000.27,0000.19,0000.16,0000.24,-000.06,0000.11,-000.22,0000.18,-000.16,15.6,22.7,,00.0,0654.0,30.7
2021-02-06T14:45:00Z,00000200,01000000,0000.15,-000.18,-000.15,-000.21,0000.01,-000.21,0000.72,0000.19,0000.27,15.6,22.6,,00.0,0654.1,30.7
2021-02-06T14:46:00Z,00000200,01000000,-000.06,0000.03,0000.08,-000.47,0000.25,-000.02,-000.14,0000.08,-000.02,15.6,22.6,,00.0,0654.1,30.8
2021-02-06T14:47:00Z,00000200,01000000,-000.21,-000.22,-000.05,0000.37,-000.23,-000.06,-000.56,0000.10,-000.19,15.6,22.6,,00.0,0653.8,30.8
2021-02-06T14:48:00Z,00000200,01000000,0000.05,-000.08,0000.02,0000.15,-000.10,-000.09,-000.06,0000.11,0000.11,15.7,22.6,,00.0,0653.9,30.8
2021-02-06T14:49:00Z,00000200,01000000,-000.31,0000.10,-000.11,-000.02,0000.13,-000.33,0000.08,-000.42,-000.29,15.8,22.7,,00.0,0654.1,30.9
2021-02-06T14:50:00Z,00000200,01000000,0000.59,0000.17,-000.06,-000.21,-000.03,0000.12,-000.70,-000.13,0000.31,15.9,22.8,,00.0,0654.1,30.9
2021-02-06T14:51:00Z,00000200,01000000,0000.34,-000.05,-000.16,-000.18,0000.14,-000.35,-000.11,-000.23,-000.01,15.9,22.8,,00.0,0654.2,30.9
2021-02-06T14:52:00Z,00000200,01000000,-000.34,-000.14,0000.01,0000.34,-000.00,-000.36,-000.22,-000.09,-000.33,16.0,22.8,,00.0,0654.2,30.9
2021-02-06T14:53:00Z,00000200,01000000,-000.09,-000.29,-000.53,0000.15,0000.14,-000.12,0000.11,-000.17,0000.26,16.0,22.8,,00.0,0654.2,30.9
2021-02-06T14:54:00Z,00000200,01000000,0000.30,0000.31,-000.26,-000.15,-000.15,0000.00,-000.18,-000.27,-000.22,16.0,22.8,,00.0,0654.2,30.9
2021-02-06T14:55:00Z,00000200,01000000,0000.09,0000.23,0000.16,-000.07,0000.29,0000.07,0000.18,0000.05,-000.19,15.9,22.7,,00.0,0654.2,30.9
2021-02-06T14:56:00Z,00000200,01000000,-000.52,0000.14,0000.13,-000.56,0000.12,0000.19,-000.14,-000.25,0000.14,15.9,22.7,,00.0,0654.2,30.9
2021-02-06T14:57:00Z,00000200,41000000,,,,,,,0000.62,0000.99,0000.49,15.9,22.7,,00.0,0654.1,30.8
2021-02-06T14:58:00Z,00000200,61000000,,,,,,,-000.25,-000.46,-000.16,15.4,22.8,,00.0,0653.3,30.8
2021-02-06T14:59:00Z,00000200,21000000,,,,,,,-000.36,-000.31,-000.57,15.4,22.9,,00.0,0653.3,30.8
